Arden, NC

1:22 PM EST on February 26, 2017 (GMT -0500)
Asheville Regional

Weather History for KAVL - February, 2009

Change the Weather History Date:

Friday, February 27, 2009

  Actual Average Record
Temperature  
Mean Temperature 51 °F 43 °F  
Max Temperature 55 °F 54 °F 78 °F (1996)
Min Temperature 47 °F 32 °F 6 °F (1934)
Degree Days  
Heating Degree Days 14 22  
Month to date heating degree days 687 668  
Since 1 July heating degree days 3275 3195  
Cooling Degree Days 0 0  
Month to date cooling degree days 0 0  
Year to date cooling degree days 0 0  
Growing Degree Days 1 (Base 50)    
Moisture  
Dew Point 47 °F    
Average Humidity 86    
Maximum Humidity 100    
Minimum Humidity 71    
Precipitation  
Precipitation 0.13 in 0.13 in 1.64 in (1899)
Month to date precipitation 1.14 3.63  
Year to date precipitation 3.54 7.30  
Snow  
Snow 0.00 in 0.10 in 7.50 in (1924)
Month to date snowfall T 2.1  
Since 1 July snowfall 1.0 7.2  
Snow Depth 0.00 in    
Sea Level Pressure  
Sea Level Pressure 30.05 in    
Wind  
Wind Speed 8 mph (South)    
Max Wind Speed 21 mph    
Max Gust Speed 29 mph    
Visibility 9 miles    
Events Rain    
T = Trace of Precipitation, MM = Missing Value Source: NWS Daily Summary

Daily Weather History Graph

Daily Weather History Graph

Search for Another Location

Airport or City:

Trip Planner

Search our weather history database for the weather conditions in past years. The results will help you decide how hot, cold, wet, or windy it might be!

Date:

Astronomy

Feb. 27, 2009 Rise Set
Actual Time 7:02 AM EST 6:23 PM EST
Civil Twilight 6:36 AM EST 6:49 PM EST
Nautical Twilight 6:07 AM EST 7:19 PM EST
Astronomical Twilight 5:37 AM EST 7:48 PM EST
Moon 8:03 AM EST (2/27) 9:19 PM EST (2/27)
Length of Visible Light 12h 12m
Length of Day
11h 21m
Waxing Crescent, 7% of the Moon is Illuminated
Feb 27
Waxing Crescent
Mar 4
First Quarter
Mar 10
Full
Mar 18
Last Quarter
Mar 26
New

Hourly Weather History & Observations

Time (EST) Temp. Dew Point Humidity Pressure Visibility Wind Dir Wind Speed Gust Speed Precip Events Conditions
12:54 AM 54.0 °F 46.0 °F 75% 30.10 in 10.0 mi South 9.2 mph 19.6 mph N/A   Overcast
1:54 AM 54.0 °F 45.0 °F 72% 30.09 in 10.0 mi South 11.5 mph - N/A   Overcast
2:54 AM 53.1 °F 45.0 °F 74% 30.08 in 10.0 mi South 10.4 mph - N/A   Overcast
3:54 AM 52.0 °F 45.0 °F 77% 30.08 in 10.0 mi SSE 9.2 mph - N/A   Overcast
4:54 AM 52.0 °F 45.0 °F 77% 30.05 in 10.0 mi SSE 16.1 mph - N/A   Overcast
5:54 AM 52.0 °F 45.0 °F 77% 30.05 in 10.0 mi South 11.5 mph - N/A   Overcast
6:54 AM 51.1 °F 45.0 °F 80% 30.05 in 10.0 mi South 8.1 mph - N/A   Overcast
7:46 AM 51.8 °F 46.4 °F 82% 30.09 in 10.0 mi South 9.2 mph - N/A   Overcast
7:54 AM 50.0 °F 46.0 °F 86% 30.06 in 7.0 mi South 8.1 mph - 0.00 in Rain Light Rain
8:42 AM 50.0 °F 46.4 °F 87% 30.09 in 8.0 mi SSW 10.4 mph - 0.01 in Rain Light Rain
8:54 AM 50.0 °F 46.9 °F 89% 30.06 in 5.0 mi SSW 13.8 mph 19.6 mph 0.02 in Rain Light Rain
9:54 AM 48.9 °F 48.0 °F 97% 30.06 in 6.0 mi South 9.2 mph - 0.03 in Rain Light Rain
10:07 AM 48.2 °F 48.2 °F 100% 30.10 in 5.0 mi South 5.8 mph - 0.00 in Rain Light Rain
10:46 AM 50.0 °F 48.2 °F 94% 30.10 in 9.0 mi South 8.1 mph - 0.02 in Rain Light Rain
10:54 AM 50.0 °F 48.0 °F 93% 30.08 in 10.0 mi SSW 9.2 mph - 0.02 in Rain Light Rain
11:54 AM 50.0 °F 48.0 °F 93% 30.07 in 9.0 mi South 11.5 mph - 0.04 in Rain Light Rain
12:30 PM 51.8 °F 48.2 °F 88% 30.09 in 10.0 mi South 8.1 mph - 0.02 in Rain Light Rain
12:52 PM 51.8 °F 48.2 °F 88% 30.06 in 10.0 mi South 9.2 mph - 0.02 in   Overcast
12:54 PM 51.1 °F 48.9 °F 92% 30.03 in 10.0 mi South 9.2 mph - 0.02 in   Mostly Cloudy
1:08 PM 51.8 °F 48.2 °F 88% 30.06 in 10.0 mi Calm Calm - N/A   Overcast
1:54 PM 52.0 °F 48.0 °F 86% 30.03 in 10.0 mi SSW 12.7 mph 16.1 mph N/A   Overcast
2:54 PM 51.1 °F 48.0 °F 89% 30.01 in 10.0 mi SSW 8.1 mph - N/A   Overcast
3:01 PM 51.8 °F 48.2 °F 88% 30.02 in 10.0 mi South 8.1 mph 17.3 mph N/A   Overcast
3:54 PM 51.1 °F 48.0 °F 89% 29.98 in 10.0 mi South 6.9 mph - N/A   Overcast
4:54 PM 51.1 °F 48.0 °F 89% 29.98 in 10.0 mi SSW 10.4 mph - N/A   Overcast
5:54 PM 51.1 °F 48.0 °F 89% 29.98 in 10.0 mi SSW 4.6 mph - N/A   Overcast
6:50 PM 50.0 °F 46.4 °F 87% 30.02 in 10.0 mi South 5.8 mph - N/A   Overcast
6:54 PM 50.0 °F 46.9 °F 89% 30.01 in 10.0 mi South 8.1 mph - N/A   Overcast
7:54 PM 50.0 °F 46.9 °F 89% 30.02 in 10.0 mi South 4.6 mph - N/A   Scattered Clouds
8:54 PM 50.0 °F 46.9 °F 89% 30.03 in 10.0 mi Calm Calm - N/A   Overcast
9:54 PM 48.9 °F 46.9 °F 93% 30.02 in 10.0 mi Calm Calm - N/A   Mostly Cloudy
10:54 PM 48.0 °F 46.9 °F 96% 30.03 in 10.0 mi Calm Calm - N/A   Clear
11:54 PM 46.9 °F 46.0 °F 97% 30.01 in 9.0 mi Calm Calm - N/A   Mostly Cloudy